Salida, CO

4:11 PM MST on February 12, 2016 (GMT -0700)
Salida

Weather History for KANK - March, 2013

Change the Weather History Date:

Sunday, March 3, 2013

  Actual Average (KGUC) Record (KGUC)
Temperature  
Mean Temperature 44 °F -  
Max Temperature 54 °F 32 °F 51 °F (1999)
Min Temperature 34 °F 9 °F -18 °F (2002)
Degree Days  
Heating Degree Days 21    
Moisture  
Dew Point 19 °F    
Average Humidity 38    
Maximum Humidity 69    
Minimum Humidity 19    
Precipitation  
Precipitation 0.00 in - - ()
Sea Level Pressure  
Sea Level Pressure 30.01 in    
Wind  
Wind Speed 12 mph (WSW)    
Max Wind Speed 32 mph    
Max Gust Speed 47 mph    
Visibility 10 miles    
Events      
Averages and records for this station are not official NWS values.
T = Trace of Precipitation, MM = Missing Value Source: NWS Daily Summary

Daily Weather History Graph

Daily Weather History Graph

Search for Another Location

Airport or City:

Trip Planner

Search our weather history database for the weather conditions in past years. The results will help you decide how hot, cold, wet, or windy it might be!

Date:

Astronomy

Mar. 03, 2013 Rise Set
Actual Time 6:32 AM MST 5:59 PM MST
Civil Twilight 6:06 AM MST 6:26 PM MST
Nautical Twilight 5:35 AM MST 6:56 PM MST
Astronomical Twilight 5:05 AM MST 7:27 PM MST
Moon No Moon Rise 9:55 AM MST (3/3)
Length of Visible Light 12h 19m
Length of Day
11h 26m
Waning Gibbous, 63% of the Moon is Illuminated
Mar 3
Waning Gibbous
Mar 4
Last Quarter
Mar 11
New
Mar 19
First Quarter
Mar 27
Full

Hourly Weather History & Observations

Time (MST) Temp. Windchill Dew Point Humidity Pressure Visibility Wind Dir Wind Speed Gust Speed Precip Events Conditions
12:15 AM 35.1 °F - 18.0 °F 50% 30.25 in 10.0 mi Calm Calm - N/A   Clear
12:35 AM 34.7 °F 28.8 °F 18.7 °F 52% 30.24 in 10.0 mi North 6.9 mph 18.4 mph N/A   Clear
12:55 AM 34.7 °F 31.8 °F 19.0 °F 53% 30.23 in 10.0 mi North 3.5 mph - N/A   Clear
1:15 AM 35.1 °F 30.1 °F 18.7 °F 51% 30.22 in 10.0 mi NE 5.8 mph - N/A   Clear
1:35 AM 36.3 °F 32.5 °F 18.0 °F 47% 30.21 in 10.0 mi NNW 4.6 mph - N/A   Clear
1:55 AM 38.7 °F 32.9 °F 16.0 °F 40% 30.20 in 10.0 mi SSW 8.1 mph - N/A   Clear
2:15 AM 43.0 °F 37.2 °F 13.8 °F 31% 30.19 in 10.0 mi SW 10.4 mph 20.7 mph N/A   Clear
2:35 AM 42.4 °F 35.0 °F 14.0 °F 32% 30.17 in 10.0 mi WSW 15.0 mph 18.4 mph N/A   Clear
2:55 AM 36.9 °F 28.2 °F 16.0 °F 43% 30.15 in 10.0 mi WSW 13.8 mph - N/A   Clear
3:35 AM 40.1 °F 34.1 °F 14.7 °F 36% 30.13 in 10.0 mi WSW 9.2 mph - N/A   Clear
3:55 AM 38.7 °F 32.4 °F 15.3 °F 39% 30.12 in 10.0 mi West 9.2 mph 17.3 mph N/A   Clear
4:15 AM 40.8 °F 34.1 °F 13.3 °F 33% 30.10 in 10.0 mi SW 11.5 mph 19.6 mph N/A   Clear
4:35 AM 43.2 °F 36.6 °F 12.6 °F 29% 30.09 in 10.0 mi SW 12.7 mph 19.6 mph N/A   Clear
4:55 AM 43.7 °F 36.9 °F 12.7 °F 29% 30.09 in 10.0 mi WSW 13.8 mph 18.4 mph N/A   Clear
5:15 AM 44.2 °F 38.0 °F 12.2 °F 27% 30.07 in 10.0 mi WSW 12.7 mph 20.7 mph N/A   Clear
5:35 AM 44.2 °F 37.3 °F 12.4 °F 28% 30.07 in 10.0 mi SW 15.0 mph 25.3 mph N/A   Clear
5:55 AM 43.7 °F 37.3 °F 12.6 °F 28% 30.06 in 10.0 mi WSW 12.7 mph 21.9 mph N/A   Clear
6:15 AM 43.0 °F 35.4 °F 13.3 °F 30% 30.04 in 10.0 mi SW 16.1 mph 24.2 mph N/A   Clear
6:35 AM 43.3 °F 36.8 °F 13.1 °F 29% 30.04 in 10.0 mi SW 12.7 mph 19.6 mph N/A   Clear
6:55 AM 44.6 °F 36.9 °F 14.0 °F 29% 30.03 in 10.0 mi SW 18.4 mph 26.5 mph N/A   Clear
7:15 AM 45.1 °F 38.1 °F 14.7 °F 29% 30.03 in 10.0 mi SW 16.1 mph 26.5 mph N/A   Clear
7:35 AM 46.0 °F 39.0 °F 14.9 °F 29% 30.03 in 10.0 mi SW 17.3 mph 21.9 mph N/A   Clear
7:55 AM 47.7 °F - 15.3 °F 27% 30.02 in 10.0 mi SSW 18.4 mph 27.6 mph N/A   Clear
8:15 AM 48.6 °F - 15.4 °F 27% 30.02 in 10.0 mi SSW 16.1 mph 25.3 mph N/A   Clear
8:35 AM 50.0 °F - 15.6 °F 25% 30.02 in 10.0 mi SW 17.3 mph 24.2 mph N/A   Clear
8:55 AM 51.4 °F - 15.3 °F 24% 30.02 in 10.0 mi SSW 15.0 mph 20.7 mph N/A   Clear
9:15 AM 52.3 °F - 15.1 °F 23% 30.02 in 10.0 mi SSW 18.4 mph 21.9 mph N/A   Clear
9:35 AM 52.7 °F - 15.8 °F 23% 30.01 in 10.0 mi SSW 12.7 mph 19.6 mph N/A   Clear
9:55 AM 54.5 °F - 15.1 °F 21% 30.02 in 10.0 mi SW 19.6 mph 33.4 mph N/A   Clear
10:15 AM 54.5 °F - 14.9 °F 21% 30.01 in 10.0 mi SW 13.8 mph 25.3 mph N/A   Clear
10:35 AM 52.0 °F - 14.9 °F 23% 30.01 in 10.0 mi SSW 11.5 mph 23.0 mph N/A   Clear
10:55 AM 52.7 °F - 13.3 °F 21% 30.01 in 10.0 mi WSW 12.7 mph 20.7 mph N/A   Clear
11:15 AM 52.9 °F - 11.3 °F 19% 30.00 in 10.0 mi WSW 17.3 mph 21.9 mph N/A   Scattered Clouds
11:35 AM 52.7 °F - 12.0 °F 20% 30.00 in 10.0 mi WSW 17.3 mph 38.0 mph N/A   Scattered Clouds
11:55 AM 53.2 °F - 12.9 °F 20% 29.99 in 10.0 mi West 25.3 mph 33.4 mph N/A   Scattered Clouds
12:15 PM 52.3 °F - 13.6 °F 21% 29.99 in 10.0 mi SW 8.1 mph 40.3 mph N/A   Scattered Clouds
12:35 PM 52.5 °F - 15.6 °F 23% 29.99 in 10.0 mi West 20.7 mph 34.5 mph N/A   Scattered Clouds
12:55 PM 52.7 °F - 16.5 °F 24% 29.97 in 10.0 mi WSW 12.7 mph 28.8 mph N/A   Clear
1:15 PM 52.7 °F - 16.9 °F 24% 29.97 in 10.0 mi West 27.6 mph 41.4 mph N/A   Scattered Clouds
1:35 PM 53.2 °F - 17.4 °F 24% 29.96 in 10.0 mi SW 12.7 mph 25.3 mph N/A   Scattered Clouds
1:55 PM 54.1 °F - 17.2 °F 23% 29.95 in 10.0 mi West 16.1 mph 27.6 mph N/A   Scattered Clouds
2:15 PM 53.1 °F - 18.3 °F 26% 29.94 in 10.0 mi SW 24.2 mph 34.5 mph N/A   Clear
2:55 PM 54.3 °F - 18.5 °F 25% 29.92 in 10.0 mi WSW 21.9 mph 29.9 mph N/A   Clear
3:15 PM 52.0 °F - 16.9 °F 25% 29.92 in 10.0 mi West 28.8 mph 41.4 mph N/A   Clear
3:35 PM 51.1 °F - 16.5 °F 25% 29.91 in 10.0 mi West 31.1 mph 46.0 mph N/A   Clear
3:55 PM 50.4 °F - 16.5 °F 26% 29.92 in 10.0 mi West 32.2 mph 47.2 mph N/A   Clear
4:15 PM 49.6 °F - 16.7 °F 27% 29.91 in 10.0 mi West 31.1 mph 44.9 mph N/A   Clear
4:35 PM 48.6 °F - 16.7 °F 28% 29.90 in 10.0 mi West 32.2 mph 40.3 mph N/A   Clear
4:55 PM 47.5 °F - 17.4 °F 30% 29.91 in 10.0 mi West 24.2 mph 40.3 mph N/A   Clear
5:15 PM 46.6 °F - 18.5 °F 33% 29.91 in 10.0 mi West 26.5 mph 39.1 mph N/A   Clear
5:35 PM 45.0 °F 36.0 °F 21.0 °F 39% 29.91 in 10.0 mi West 25.3 mph 35.7 mph N/A   Clear
5:55 PM 43.9 °F 35.7 °F 22.5 °F 43% 29.91 in 10.0 mi West 19.6 mph 32.2 mph N/A   Clear
6:15 PM 43.3 °F 35.2 °F 22.3 °F 43% 29.92 in 10.0 mi WSW 18.4 mph 31.1 mph N/A   Clear
6:35 PM 42.6 °F 34.0 °F 23.7 °F 47% 29.92 in 10.0 mi WSW 19.6 mph 26.5 mph N/A   Scattered Clouds
6:55 PM 40.8 °F 30.9 °F 27.9 °F 60% 29.93 in 10.0 mi WSW 23.0 mph 32.2 mph N/A   Scattered Clouds
7:15 PM 39.9 °F 30.5 °F 28.4 °F 63% 29.95 in 10.0 mi West 19.6 mph 28.8 mph N/A   Mostly Cloudy
7:35 PM 39.6 °F 32.1 °F 28.2 °F 64% 29.95 in 10.0 mi WSW 12.7 mph 19.6 mph N/A   Scattered Clouds
7:55 PM 39.2 °F 34.2 °F 28.0 °F 64% 29.95 in 10.0 mi NNW 6.9 mph 17.3 mph N/A   Clear
8:15 PM 39.4 °F 33.8 °F 26.6 °F 60% 29.95 in 10.0 mi West 8.1 mph - N/A   Clear
8:35 PM 39.2 °F 35.0 °F 27.5 °F 63% 29.94 in 10.0 mi NW 5.8 mph - N/A   Scattered Clouds
8:55 PM 39.4 °F 32.3 °F 27.5 °F 62% 29.95 in 10.0 mi West 11.5 mph 16.1 mph N/A   Scattered Clouds
9:15 PM 38.3 °F 30.5 °F 28.9 °F 69% 29.95 in 10.0 mi West 12.7 mph 17.3 mph N/A   Clear
9:35 PM 38.1 °F 32.9 °F 28.4 °F 68% 29.94 in 10.0 mi West 6.9 mph 16.1 mph N/A   Scattered Clouds
9:55 PM 38.1 °F 31.7 °F 27.9 °F 67% 29.93 in 10.0 mi WSW 9.2 mph - N/A   Scattered Clouds
10:15 PM 38.5 °F 33.4 °F 28.4 °F 67% 29.92 in 10.0 mi West 6.9 mph - N/A   Scattered Clouds
10:35 PM 38.1 °F 31.7 °F 28.4 °F 68% 29.91 in 10.0 mi West 9.2 mph - N/A   Clear
11:15 PM 37.8 °F 33.3 °F 27.5 °F 67% 29.91 in 10.0 mi ESE 5.8 mph - N/A   Scattered Clouds
11:35 PM 38.8 °F 33.8 °F 28.4 °F 66% 29.91 in 10.0 mi West 6.9 mph - N/A   Mostly Cloudy
11:55 PM 37.8 °F 34.2 °F 28.2 °F 68% 29.89 in 10.0 mi SW 4.6 mph - N/A   Mostly Cloudy